This is the latest recevied weather packets stored in our database for station/object VU3ZAG-WX. If no packets are shown the sender has not sent any weather packets the latest 10 day(s).
| Time | Temp. | Humidity | Pressure | Rain* | Wind** | Luminosity | Snow |
|---|---|---|---|---|---|---|---|
| 1777613760 | 37.78° C | 47% | 1011.4 hPa | - | - | - | - |
| 1777613154 | 37.22° C | 45% | 1011.4 hPa | - | - | - | - |
| 1777612548 | 36.67° C | 48% | 1011.5 hPa | - | - | - | - |
| 1777611943 | 36.11° C | 51% | 1011.6 hPa | - | - | - | - |
| 1777611337 | 36.11° C | 51% | 1011.6 hPa | - | - | - | - |
| 1777610731 | 35.56° C | 52% | 1011.6 hPa | - | - | - | - |
| 1777610126 | 35.56° C | 52% | 1011.7 hPa | - | - | - | - |
| 1777609520 | 35.56° C | 52% | 1011.7 hPa | - | - | - | - |
| 1777608915 | 35° C | 50% | 1011.7 hPa | - | - | - | - |
| 1777608309 | 34.44° C | 55% | 1011.7 hPa | - | - | - | - |
| 1777607703 | 34.44° C | 52% | 1011.7 hPa | - | - | - | - |
| 1777607098 | 33.89° C | 54% | 1011.6 hPa | - | - | - | - |
| 1777606492 | 33.89° C | 53% | 1011.5 hPa | - | - | - | - |
| 1777605886 | 33.33° C | 55% | 1011.5 hPa | - | - | - | - |
| 1777605280 | 33.33° C | 56% | 1011.4 hPa | - | - | - | - |
| 1777604674 | 32.78° C | 59% | 1011.3 hPa | - | - | - | - |
| 1777604069 | 32.78° C | 59% | 1011.2 hPa | - | - | - | - |
| 1777603463 | 32.78° C | 56% | 1011 hPa | - | - | - | - |
| 1777602857 | 32.78° C | 61% | 1010.9 hPa | - | - | - | - |
| 1777602251 | 32.78° C | 58% | 1010.7 hPa | - | - | - | - |
| 1777601646 | 32.22° C | 58% | 1010.5 hPa | - | - | - | - |
| 1777601040 | 32.22° C | 58% | 1010.3 hPa | - | - | - | - |
| 1777600435 | 31.67° C | 61% | 1010.2 hPa | - | - | - | - |
| 1777599830 | 31.11° C | 61% | 1010.1 hPa | - | - | - | - |
| 1777599224 | 30.56° C | 64% | 1010 hPa | - | - | - | - |
* Rain since midnight (hover to see other rain measurements)
** Current wind speed in m/s (hover to see current wind gust speed)